マクノート彗星

P/2005 Y2 ( McNaught )

English version
Home page
Total 6,336 html files since Dec. 4, 1995
Updated on April 4, 2008

---------------------------------------------------------------------

・ プロフィール

発見日 2005年12月30日
発見光度 17.8等
発見者 R. H. McNaught (Siding Spring)

・ 軌道要素

The following orbital elements are taken from MPC 57794:

Epoch 2004 Dec. 21.0 TT = JDT 2453360.5
T 2004 Dec. 27.9433 TT                                  MPC
q   3.354906             (2000.0)            P               Q
n   0.0625393      Peri.  194.5772      +0.3149395      +0.8908328
a   6.285902       Node    94.6226      -0.8345917      +0.4242293
e   0.466281       Incl.   19.1795      -0.4519622      -0.1626238
P  15.8
From 62 observations 2005 Aug. 28-2006 Sept. 25, mean residual 0".6.

・ 星図

・ 光度変化

        m1 = 9.2 + 5 logΔ + 10.0 log r(t - 800)

---------------------------------------------------------------------

軌道要素はMPCのEphemerides and Orbital Elementsに掲載されたものです。
星図は StellaNavigator Ver.2.0 for Windows (アストロアーツ 編著 / アスキー出版局刊) で作成したものです。
光度グラフはComet for Windowsで作成したものです。

---------------------------------------------------------------------

Copyright(C) 1995-2008 Seiichi Yoshida (comet@aerith.net). All rights reserved.